Fort Worth NAS, TX

12:17 PM CST on February 24, 2018 (GMT -0600)
Fort Worth Naval Air Station Jrb

Weather History for KNFW - August, 2013

Change the Weather History Date:

Tuesday, August 20, 2013

  Actual Average Record
Temperature  
Mean Temperature 86 °F -  
Max Temperature 99 °F 92 °F 107 °F (2011)
Min Temperature 75 °F 74 °F 35 °F (2006)
Cooling Degree Days 22    
Growing Degree Days 36 (Base 50)    
Moisture  
Dew Point 56 °F    
Average Humidity 36    
Maximum Humidity 56    
Minimum Humidity 20    
Precipitation  
Precipitation 0.00 in - - ()
Sea Level Pressure  
Sea Level Pressure 29.99 in    
Wind  
Wind Speed 5 mph (SE)    
Max Wind Speed 13 mph    
Max Gust Speed 16 mph    
Visibility 10 miles    
Events      
Averages and records for this station are not official NWS values.
T = Trace of Precipitation, MM = Missing Value Source: NWS Daily Summary

Daily Weather History Graph

Daily Weather History Graph

Search for Another Location

Airport or City:

Trip Planner

Search our weather history database for the weather conditions in past years. The results will help you decide how hot, cold, wet, or windy it might be!

Date:

Astronomy

Aug. 20, 2013 Rise Set
Actual Time 6:56 AM CDT 8:08 PM CDT
Civil Twilight 6:31 AM CDT 8:34 PM CDT
Nautical Twilight 6:00 AM CDT 9:04 PM CDT
Astronomical Twilight 5:28 AM CDT 9:36 PM CDT
Moon 7:44 PM CDT (8/20) 6:26 AM CDT (8/20)
Length of Visible Light 14h 03m
Length of Day
13h 12m
Full, 100% of the Moon is Illuminated
Aug 20
Full
Aug 20
Full
Aug 28
Last Quarter
Sep 5
New
Sep 12
First Quarter

Hourly Weather History & Observations

Time (CDT) Temp. Heat Index Dew Point Humidity Pressure Visibility Wind Dir Wind Speed Gust Speed Precip Events Conditions
12:52 AM 84.0 °F 83.3 °F 57.0 °F 40% 29.98 in 10.0 mi East 3.5 mph - N/A   Clear
1:52 AM 81.0 °F 81.0 °F 57.0 °F 44% 29.97 in 10.0 mi East 3.5 mph - N/A   Clear
2:52 AM 80.1 °F 80.6 °F 57.9 °F 47% 29.98 in 10.0 mi ESE 3.5 mph - N/A   Clear
3:52 AM 79.0 °F - 57.9 °F 48% 29.98 in 10.0 mi ESE 4.6 mph - N/A   Clear
4:52 AM 78.1 °F - 59.0 °F 52% 29.98 in 10.0 mi ESE 5.8 mph - N/A   Clear
5:52 AM 77.0 °F - 59.0 °F 54% 29.99 in 10.0 mi ESE 3.5 mph - N/A   Clear
6:52 AM 75.9 °F - 59.0 °F 56% 30.01 in 10.0 mi ESE 3.5 mph - N/A   Partly Cloudy
7:52 AM 77.0 °F - 59.0 °F 54% 30.02 in 10.0 mi Calm Calm - N/A   Partly Cloudy
8:52 AM 81.0 °F 81.6 °F 60.1 °F 49% 30.03 in 10.0 mi Calm Calm - N/A   Partly Cloudy
9:52 AM 84.9 °F 84.8 °F 60.1 °F 43% 30.04 in 10.0 mi South 6.9 mph - N/A   Partly Cloudy
10:52 AM 90.0 °F 89.7 °F 60.1 °F 37% 30.04 in 10.0 mi SSW 5.8 mph - N/A   Partly Cloudy
11:52 AM 93.9 °F 92.6 °F 57.0 °F 29% 30.03 in 10.0 mi SSE 8.1 mph 16.1 mph N/A   Partly Cloudy
12:52 PM 95.0 °F 93.0 °F 55.0 °F 26% 30.02 in 10.0 mi South 8.1 mph - N/A   Partly Cloudy
1:52 PM 96.1 °F 93.5 °F 53.1 °F 23% 30.00 in 10.0 mi South 12.7 mph - N/A   Partly Cloudy
2:52 PM 97.0 °F - 52.0 °F 22% 29.99 in 10.0 mi ESE 8.1 mph - N/A   Scattered Clouds
3:52 PM 98.1 °F - 51.1 °F 20% 29.97 in 10.0 mi Calm Calm - N/A   Scattered Clouds
4:52 PM 98.1 °F - 51.1 °F 20% 29.96 in 10.0 mi ESE 12.7 mph - N/A   Scattered Clouds
5:52 PM 97.0 °F - 50.0 °F 20% 29.94 in 10.0 mi SE 8.1 mph - N/A   Scattered Clouds
6:52 PM 96.1 °F - 51.1 °F 22% 29.94 in 10.0 mi SE 9.2 mph - N/A   Clear
7:52 PM 93.9 °F - 50.0 °F 22% 29.94 in 10.0 mi SE 6.9 mph - N/A   Partly Cloudy
8:52 PM 91.0 °F 88.9 °F 55.0 °F 29% 29.95 in 10.0 mi SE 4.6 mph - N/A   Partly Cloudy
9:52 PM 88.0 °F 86.5 °F 55.9 °F 34% 29.97 in 10.0 mi ESE 3.5 mph - N/A   Partly Cloudy
10:52 PM 87.1 °F 85.9 °F 57.0 °F 36% 29.99 in 10.0 mi ESE 4.6 mph - N/A   Partly Cloudy
11:52 PM 84.0 °F 84.4 °F 61.0 °F 46% 29.99 in 10.0 mi Calm Calm - N/A   Clear